CW5629 Weather Reports


Display with metric or nautical units.
time (UTC)temp
F
wind
direction
speed
MPH
gust
MPH
rain 1hr
in
rain 24hr
in
rain mn
in
humidity
%
barometer
mb
20260504234130 54 93 0.0 1.0 0.00 0.00 0.00 89 1013.8
20260504233114 54 84 0.0 1.0 0.00 0.00 0.00 89 1013.7
20260504232143 54 75 0.0 3.0 0.00 0.00 0.00 89 1013.6
20260504231120 54 92 0.0 1.0 0.00 0.00 0.00 89 1013.5
20260504230132 55 97 0.0 2.0 0.00 0.00 0.00 90 1013.5
20260504225118 55 82 0.0 1.0 0.00 0.00 0.00 91 1013.5
20260504224131 55 118 0.0 0.0 0.00 0.00 0.00 91 1013.6
20260504223138 54 91 0.0 0.0 0.00 0.00 0.00 91 1013.7
20260504222129 54 91 0.0 0.0 0.00 0.00 0.00 91 1013.7
20260504221121 54 91 0.0 1.0 0.00 0.00 0.00 91 1013.7
20260504220123 54 85 0.0 0.0 0.00 0.00 0.00 89 1013.7
20260504215114 55 85 0.0 0.0 0.00 0.00 0.00 90 1013.7
20260504214124 55 85 0.0 0.0 0.00 0.00 0.00 89 1013.7
20260504213137 55 85 0.0 1.0 0.00 0.00 0.00 89 1013.7
20260504212123 56 85 0.0 1.0 0.00 0.00 0.00 88 1013.7
20260504211136 56 115 0.0 0.0 0.00 0.00 0.00 88 1013.7
20260504210123 56 115 0.0 0.0 0.00 0.00 0.00 87 1013.7
20260504205136 57 117 0.0 0.0 0.00 0.00 0.00 87 1013.8
20260504204121 57 117 0.0 0.0 0.00 0.00 0.00 87 1013.7
20260504203114 57 117 0.0 0.0 0.00 0.00 0.00 87 1013.7
20260504202117 57 117 0.0 1.0 0.00 0.00 0.00 86 1013.7
20260504201131 57 117 0.0 0.0 0.00 0.00 0.00 85 1013.6
20260504200117 57 136 0.0 0.0 0.00 0.00 0.00 83 1013.5
20260504195129 57 136 0.0 0.0 0.00 0.00 0.00 82 1013.5
20260504194122 58 136 0.0 1.0 0.00 0.00 0.00 82 1013.4
20260504193127 58 136 0.0 0.0 0.00 0.00 0.00 82 1013.3
20260504192119 59 113 0.0 0.0 0.00 0.00 0.00 80 1013.2
20260504191133 59 110 0.0 1.0 0.00 0.00 0.00 79 1013.2
20260504190125 60 129 0.0 0.0 0.00 0.00 0.00 78 1013.1
20260504185158 60 114 0.0 0.0 0.00 0.00 0.00 76 1013.0
20260504184123 61 109 0.0 1.0 0.00 0.00 0.00 75 1012.9
20260504183137 62 120 0.0 1.0 0.00 0.00 0.00 74 1012.9
20260504182123 63 110 0.0 2.0 0.00 0.00 0.00 72 1012.9
20260504181114 64 78 0.0 2.0 0.00 0.00 0.00 70 1012.8
20260504180127 64 115 0.0 4.0 0.00 0.00 0.00 69 1012.7
20260504175114 66 120 0.0 1.0 0.00 0.00 0.00 64 1012.7
20260504174127 67 121 0.0 1.0 0.00 0.00 0.00 54 1012.7
20260504173114 68 101 0.0 1.0 0.00 0.00 0.00 51 1012.7
20260504172127 68 89 0.0 2.0 0.00 0.00 0.00 51 1012.6
20260504171114 68 107 0.0 1.0 0.00 0.04 0.00 50 1012.8
20260504170112 68 104 0.0 1.0 0.00 0.04 0.00 49 1012.7
20260504160113 67 84 0.0 2.0 0.00 0.04 0.00 51 1012.6
20260504151122 67 95 0.0 2.0 0.00 0.04 0.00 54 1012.9
20260504150135 67 97 0.0 1.0 0.00 0.04 0.00 55 1012.9
20260504141128 67 115 0.0 3.0 0.00 0.04 0.00 62 1013.0
20260504140121 66 118 0.0 2.0 0.00 0.04 0.00 63 1013.0
20260504130144 67 128 0.0 4.0 0.00 0.04 0.00 67 1013.2
20260504120125 66 103 0.0 3.0 0.00 0.04 0.00 68 1013.2
20260504110129 66 120 0.0 1.0 0.00 0.04 0.00 68 1013.4
20260504100115 61 131 0.0 1.0 0.00 0.04 0.00 74 1013.4
20260504090125 59 114 0.0 0.0 0.00 0.04 0.00 80 1013.3
20260504081139 58 113 0.0 0.0 0.00 0.04 0.00 90 1012.9
20260504080111 57 113 0.0 0.0 0.00 0.04 0.00 92 1012.8
20260504070128 57 113 0.0 1.0 0.00 0.04 0.00 95 1012.4
20260504060150 48 113 0.0 0.0 0.00 0.04 0.00 97 1011.9
20260504050130 49 113 0.0 0.0 0.00 0.04 0.00 96 1011.3
20260504045116 49 113 0.0 0.0 0.00 0.04 0.00 96 1011.3
20260504044130 49 113 0.0 0.0 0.00 0.04 0.00 96 1011.3
20260504043121 49 113 0.0 0.0 0.00 0.04 0.00 96 1011.3
20260504042147 49 113 0.0 0.0 0.00 0.04 0.00 96 1011.3
20260504041122 49 113 0.0 0.0 0.00 0.04 0.00 96 1011.3
20260504040152 49 113 0.0 0.0 0.00 0.04 0.00 96 1011.3
20260504035120 49 113 0.0 0.0 0.00 0.04 0.00 96 1011.3
20260504034113 50 113 0.0 0.0 0.00 0.04 0.00 96 1011.2
20260504033120 50 113 0.0 0.0 0.00 0.04 0.00 95 1011.2
20260504032113 51 113 0.0 0.0 0.00 0.04 0.00 95 1011.3
20260504031119 51 113 0.0 0.0 0.00 0.04 0.00 96 1011.3
20260504030113 52 113 0.0 0.0 0.00 0.04 0.00 96 1011.3
20260504025127 52 113 0.0 0.0 0.00 0.04 0.00 96 1011.3
20260504024113 52 113 0.0 0.0 0.00 0.04 0.00 96 1011.2
20260504023127 52 113 0.0 0.0 0.00 0.04 0.00 96 1011.2
20260504022114 52 113 0.0 0.0 0.00 0.04 0.00 96 1011.2
20260504021127 52 113 0.0 0.0 0.00 0.04 0.00 96 1011.3
20260504020114 52 113 0.0 0.0 0.00 0.04 0.00 96 1011.2
20260504015142 52 113 0.0 0.0 0.00 0.04 0.00 96 1011.2
20260504014114 52 113 0.0 0.0 0.00 0.04 0.00 96 1011.2
20260504013147 52 113 0.0 0.0 0.00 0.04 0.00 96 1011.2
20260504012112 52 113 0.0 0.0 0.00 0.04 0.00 96 1011.2
20260504011125 52 113 0.0 0.0 0.00 0.04 0.00 96 1011.1
20260504010134 52 113 0.0 0.0 0.00 0.04 0.00 96 1011.1
20260504005121 51 113 0.0 0.0 0.00 0.04 0.00 96 1011.1
20260504004135 51 113 0.0 0.0 0.00 0.04 0.00 96 1011.1
20260504003126 51 113 0.0 0.0 0.00 0.04 0.00 96 1011.0
20260504002112 51 113 0.0 0.0 0.00 0.04 0.00 96 1011.0
20260504001125 51 113 0.0 0.0 0.00 0.04 0.00 96 1011.0
20260504000111 51 113 0.0 0.0 0.00 0.04 0.00 96 1011.0
20260503235124 51 113 0.0 0.0 0.00 0.04 0.00 95 1011.0